Vertical_Velocity
-1 0 -0 -0 -0 -1 -0 0 1 1 0 -0 -0 1 1 -1 -2 -1 -1 -0 -0 1 1 1 1 0 0 1 0 0 -1 0 0
-1 -1 -0 -1 2 2 -0 0 0 -1 1 0 -1 -1 -1 2 0 -0 -1 -0 -0 -1 -1 0 1 1 0 0 1 2 1 0 1
0 -0 0 -0 -1 -0 1 1 1 -0 1 1 1 1 1 -1 0 1 -0 -1 -1 1 1 0 -1 -1 0 2 0 -0 1 1 2
2 1 2 -0 0 0 0 1 1 0 -1 -1 -0 -1 -0 1 0 0 2 2 1 -0 0 1 2 1 -0 -2 0 2 1 0 -0
0 -0 1 -0 -2 -1 -1 -1 -0 1 -0 -0 -2 -1 0 -1 -1 -1 0 2 -1 1 1 2 1 3 2 0 -1 -0 1 1 1
-0 0 -1 -0 -1 -3 -3 -1 -1 -2 -1 -0 -1 -2 3 -2 -0 1 0 -3 -1 2 1 -1 0 0 2 2 1 0 -1 0 0
-1 1 -1 2 1 1 2 -1 1 -1 0 1 -1 -2 1 -0 1 1 0 -2 -0 -1 1 -0 -1 0 0 2 2 2 0 0 0
-2 -4 -2 -2 -2 -1 -1 0 0 -3 -2 0 -2 -2 1 -4 -4 2 -1 4 -5 -0 -1 1 2 -1 -1 0 1 2 2 1 0
1 0 -0 -1 -2 -3 -3 -2 -2 -1 -0 -0 2 1 -1 -1 -1 -2 1 1 4 -3 -2 -1 -2 1 1 -0 0 1 2 2 1
-2 -1 -0 0 1 -1 0 -0 0 -1 -3 -1 -1 -0 -0 -2 -2 -2 -1 2 3 -1 3 1 -1 -2 1 1 1 0 1 1 1
-1 -2 -2 -2 -2 -2 -1 -1 -1 -0 0 2 0 0 0 1 -1 -3 -1 -3 1 1 -3 2 3 1 -2 1 0 1 0 1 1
-1 -1 -1 -1 -1 -1 -3 -4 -3 -1 -0 1 0 -1 -1 -0 -2 -1 -2 -1 -1 0 4 -1 4 3 1 -2 1 2 0 -0 1
-1 -1 -2 -2 -3 -1 -1 -1 0 -1 -2 -1 -0 0 -1 -2 -0 -3 -3 0 -2 -2 2 -2 2 1 4 1 -1 2 1 1 -0
-3 -2 -2 -3 -3 -3 -2 -3 -2 -1 -3 -2 -1 -2 -0 1 -1 -0 -3 -3 -3 -6 -3 -1 -2 5 3 0 0 2 2 1 2
-1 -1 -0 -1 -2 -3 -2 -2 -6 -5 -3 -1 -2 -1 -1 -1 -3 -0 -3 -2 2 -1 -1 -3 -2 -2 5 8 -0 4 1 2 1
-1 -1 -2 -1 -1 -2 -2 -1 2 -10 -8 -5 0 -2 1 -2 1 -2 -1 3 0 -1 -0 5 -2 1 6 -1 -2 -2 -1 3 2
-2 -2 -3 -4 -4 -2 -1 1 0 -7 -8 -3 -6 -2 10 -4 -3 -10 -5 -3 -3 0 1 3 -0 3 1 9 2 -2 -1 1 1
-3 -2 -1 -2 -1 -1 -0 -3 -0 4 -6 -11 -8 -3 1 -2 9 -9 -9 -7 -2 9 -2 -11 -2 8 9 0 -12 -13 -4 -2 5
-2 -2 -2 -2 -2 -2 -2 -1 -2 -1 3 -3 -10 -12 -12 -5 13 -16 -9 -7 6 -2 -3 31 75 -8 229 -2 0 8 11 -1 8
-1 -2 -1 -1 -2 -1 -2 -3 -2 -1 -1 1 7 1 -6 -13 -8 11 -7 -13 1 -4 -2 -17 -7 -11 48 160 2 25 -3 2 17
Height
5855 5854 5853 5852 5852 5851 5850 5849 5849 5848 5847 5846 5845 5845 5845 5845 5845 5845 5845 5845 5845 5845 5845 5845 5844 5844 5844 5844 5845 5845 5845 5845 5846
5849 5849 5847 5846 5846 5845 5844 5843 5843 5842 5842 5841 5840 5839 5839 5840 5839 5839 5840 5840 5840 5840 5840 5840 5840 5840 5840 5840 5840 5840 5840 5841 5841
5843 5842 5842 5840 5839 5838 5837 5836 5835 5834 5834 5834 5833 5833 5833 5833 5833 5834 5834 5834 5834 5834 5834 5833 5834 5835 5835 5835 5836 5836 5836 5836 5836
5838 5836 5836 5834 5833 5832 5830 5829 5828 5827 5826 5826 5826 5826 5826 5826 5826 5826 5827 5827 5827 5828 5828 5828 5827 5828 5829 5830 5830 5830 5831 5831 5831
5833 5831 5831 5829 5828 5827 5826 5824 5823 5822 5820 5819 5819 5819 5819 5818 5817 5818 5819 5819 5819 5820 5821 5821 5821 5822 5821 5822 5823 5824 5825 5825 5826
5827 5826 5824 5822 5821 5820 5819 5818 5816 5815 5814 5812 5811 5810 5811 5810 5810 5810 5810 5809 5810 5812 5812 5813 5813 5814 5815 5815 5816 5817 5819 5819 5820
5820 5818 5816 5815 5813 5811 5809 5808 5806 5805 5803 5803 5801 5801 5800 5801 5801 5801 5801 5801 5800 5801 5803 5804 5804 5805 5806 5807 5809 5809 5811 5812 5813
5811 5809 5807 5805 5803 5801 5799 5797 5796 5794 5793 5792 5791 5790 5790 5788 5790 5791 5790 5791 5789 5790 5792 5793 5794 5795 5797 5798 5800 5801 5803 5803 5805
5803 5800 5798 5796 5794 5792 5790 5788 5786 5785 5783 5781 5780 5779 5778 5777 5776 5777 5778 5779 5780 5777 5780 5782 5783 5784 5786 5788 5790 5792 5794 5795 5796
5794 5791 5789 5786 5784 5781 5780 5778 5776 5774 5773 5771 5770 5769 5768 5766 5764 5764 5764 5765 5765 5765 5765 5768 5770 5772 5774 5777 5779 5781 5783 5785 5787
5784 5782 5779 5776 5774 5772 5770 5768 5766 5765 5763 5761 5759 5758 5756 5755 5753 5751 5749 5749 5749 5751 5750 5753 5756 5759 5761 5764 5767 5770 5772 5774 5776
5774 5771 5769 5767 5766 5764 5762 5759 5756 5755 5753 5751 5749 5746 5744 5742 5740 5739 5737 5735 5735 5735 5736 5736 5739 5742 5746 5750 5753 5757 5760 5762 5765
5768 5765 5763 5761 5758 5756 5753 5750 5748 5746 5743 5741 5738 5735 5732 5730 5727 5725 5723 5722 5722 5721 5723 5722 5721 5727 5730 5734 5739 5743 5746 5750 5753
5762 5759 5756 5753 5750 5747 5745 5742 5739 5736 5733 5730 5727 5723 5721 5718 5715 5712 5709 5707 5705 5705 5706 5707 5708 5710 5715 5718 5723 5729 5733 5736 5740
5755 5752 5749 5746 5743 5740 5737 5733 5729 5725 5722 5718 5714 5711 5709 5705 5702 5699 5695 5692 5689 5688 5688 5689 5694 5695 5697 5702 5707 5714 5719 5723 5727
5748 5745 5742 5738 5735 5732 5728 5725 5721 5716 5713 5708 5704 5700 5698 5693 5690 5685 5681 5676 5671 5668 5668 5670 5674 5680 5680 5685 5693 5699 5705 5710 5714
5742 5739 5735 5732 5728 5725 5722 5719 5714 5709 5704 5701 5696 5692 5689 5683 5677 5670 5662 5654 5647 5644 5645 5646 5651 5657 5664 5668 5675 5683 5690 5696 5702
5736 5732 5728 5725 5721 5718 5714 5710 5706 5701 5695 5690 5687 5684 5681 5677 5668 5656 5643 5631 5626 5623 5620 5620 5626 5631 5640 5650 5656 5668 5678 5687 5688
5730 5726 5723 5719 5715 5711 5706 5702 5697 5693 5688 5682 5677 5672 5668 5666 5662 5644 5631 5625 5620 5618 5612 5614 5610 5621 5619 5631 5644 5659 5666 5671 5674
5723 5719 5715 5711 5707 5703 5698 5693 5689 5684 5679 5675 5670 5663 5657 5653 5649 5642 5626 5621 5617 5615 5608 5614 5614 5614 5610 5608 5622 5640 5648 5656 5656